User: anonymous
Location: Ladysmith
(45.4630°N, 91.1040°W)
Time: 00:32:35
(UTC-05:00)
Language:

SO-67 - Orbit

View from above orbital plane
View from above orbital plane
View from above satellite
View from above satellite

Ground track
Ground track

The orbit data is extracted from the following two-line orbital elements,

1 35870U 09049F   14107.92534948  .00013925  00000-0  45238-3 0   628
2 35870 097.1652 131.0840 0001249 053.3349 354.6535 15.32027667254826
Epoch (UTC): 17 April 2014 22:12:30
Eccentricity: 0.0001249
inclination: 97.1652°
perigee height: 469 km
apogee height: 470 km
right ascension of ascending node: 131.0840°
argument of perigee: 53.3349°
revolutions per day: 15.32027667
mean anomaly at epoch: 354.6535°
orbit number at epoch: 25482

The dashed part of the orbit path shows where the satellite is in the earth's shadow,  

DLR